When you browse on this site, cookies collect data to enhance your experience and personalize the content and advertising you see.
Visit our Privacy Policy to learn more. By continuing to use the site, you agree to this use of cookies and data.
  • In United Kingdom
  • List of Countries
  • For 7 days
  • Water Temperature
  • Weather Map
  • Weather Widgets
  • user-avatar
    Login

    Hourly Weather Chipping Sodbury

    Today, 29 February, Saturday

    Time Temperature Precipitation Wind Pressure Humidity
    00:00 +8°C° 0.1 mm 11 mps 732 mmHg 90%
    01:00 +8°C° 0.8 mm 11 mps 730 mmHg 90%
    02:00 +8°C° 0.8 mm 12 mps 729 mmHg 90%
    03:00 +8°C° 0.8 mm 13 mps 727 mmHg 90%
    04:00 +6°C° 1.4 mm 11 mps 727 mmHg 90%
    05:00 +5°C° 1.4 mm 10 mps 727 mmHg 89%
    06:00 +4°C° 1.4 mm 8 mps 727 mmHg 89%
    07:00 +2°C° 0.2 mm 9 mps 727 mmHg 86%
    08:00 +2°C° 0.2 mm 9 mps 727 mmHg 84%
    09:00 +1°C° 0.2 mm 10 mps 728 mmHg 81%
    10:00 +1°C° 0.2 mm 10 mps 728 mmHg 77%
    11:00 +2°C° 0.2 mm 11 mps 729 mmHg 72%
    12:00 +2°C° 0.2 mm 11 mps 730 mmHg 68%
    13:00 +2°C° 0.3 mm 11 mps 729 mmHg 68%
    14:00 +2°C° 0.3 mm 11 mps 729 mmHg 67%
    15:00 +2°C° 0.3 mm 11 mps 729 mmHg 67%
    16:00 +1°C° 0.1 mm 10 mps 729 mmHg 69%
    17:00 +1°C° 0.1 mm 10 mps 729 mmHg 70%
    18:00 0°C° 0.1 mm 9 mps 729 mmHg 72%
    19:00 0°C° 0 mm 9 mps 729 mmHg 72%
    20:00 0°C° 0 mm 9 mps 729 mmHg 73%
    21:00 0°C° 0 mm 9 mps 728 mmHg 74%
    22:00 +1°C° 0.1 mm 9 mps 729 mmHg 74%
    23:00 +1°C° 0.1 mm 9 mps 729 mmHg 73%

    Tomorrow, 1 March, Sunday

    Time Temperature Precipitation Wind Pressure Humidity
    00:00 +1°C° 0.1 mm 9 mps 730 mmHg 73%
    01:00 +1°C° 0.1 mm 9 mps 730 mmHg 73%
    02:00 +1°C° 0.1 mm 9 mps 730 mmHg 72%
    03:00 0°C° 0.1 mm 8 mps 730 mmHg 72%
    04:00 0°C° 0.1 mm 8 mps 730 mmHg 73%
    05:00 0°C° 0.1 mm 8 mps 730 mmHg 74%
    06:00 0°C° 0.1 mm 8 mps 731 mmHg 75%
    07:00 0°C° 0.1 mm 8 mps 731 mmHg 76%
    08:00 +1°C° 0.1 mm 8 mps 731 mmHg 76%
    09:00 +1°C° 0.1 mm 8 mps 731 mmHg 77%
    10:00 +2°C° 0.2 mm 8 mps 731 mmHg 73%
    11:00 +4°C° 0.2 mm 8 mps 732 mmHg 69%
    12:00 +5°C° 0.2 mm 9 mps 732 mmHg 64%
    13:00 +4°C° 0.1 mm 8 mps 731 mmHg 65%
    14:00 +4°C° 0.1 mm 8 mps 731 mmHg 65%
    15:00 +4°C° 0.1 mm 8 mps 731 mmHg 66%
    16:00 +3°C° 0 mm 7 mps 731 mmHg 69%
    17:00 +3°C° 0 mm 6 mps 730 mmHg 73%
    18:00 +2°C° 0 mm 5 mps 730 mmHg 77%
    19:00 +1°C° 0 mm 4 mps 730 mmHg 81%
    20:00 +2°C° 0 mm 3 mps 729 mmHg 85%
    21:00 +2°C° 0 mm 3 mps 729 mmHg 88%
    22:00 +3°C° 0.1 mm 2 mps 729 mmHg 90%
    23:00 +4°C° 0.1 mm 1 mps 728 mmHg 91%

    Day after tomorrow, 2 March, Monday

    Time Temperature Precipitation Wind Pressure Humidity
    00:00 +4°C° 0.1 mm 1 mps 727 mmHg 92%
    01:00 +4°C° 0.4 mm 1 mps 727 mmHg 93%
    02:00 +3°C° 0.4 mm 2 mps 727 mmHg 93%
    03:00 +3°C° 0.4 mm 2 mps 726 mmHg 94%
    04:00 +2°C° 0.1 mm 3 mps 727 mmHg 91%
    05:00 +1°C° 0.1 mm 3 mps 727 mmHg 88%
    06:00 0°C° 0.1 mm 4 mps 728 mmHg 85%
    07:00 0°C° 0 mm 4 mps 729 mmHg 83%
    08:00 +1°C° 0 mm 5 mps 729 mmHg 80%
    09:00 +2°C° 0 mm 5 mps 730 mmHg 77%
    10:00 +2°C° 0 mm 5 mps 731 mmHg 71%
    11:00 +3°C° 0 mm 6 mps 731 mmHg 66%
    12:00 +4°C° 0 mm 6 mps 732 mmHg 61%
    13:00 +4°C° 0.1 mm 7 mps 732 mmHg 62%
    14:00 +4°C° 0.1 mm 7 mps 732 mmHg 63%
    15:00 +4°C° 0.1 mm 7 mps 732 mmHg 64%
    16:00 +3°C° 0.1 mm 6 mps 732 mmHg 67%
    17:00 +2°C° 0.1 mm 6 mps 733 mmHg 70%
    18:00 +1°C° 0.1 mm 5 mps 733 mmHg 74%
    19:00 0°C° 0 mm 4 mps 734 mmHg 75%
    20:00 0°C° 0 mm 4 mps 734 mmHg 77%
    21:00 0°C° 0 mm 4 mps 734 mmHg 79%
    22:00 0°C° 0 mm 4 mps 735 mmHg 83%
    23:00 +1°C° 0 mm 4 mps 735 mmHg 86%

    3 March, Tuesday

    Time Temperature Precipitation Wind Pressure Humidity
    00:00 +1°C° 0 mm 5 mps 735 mmHg 90%
    01:00 +1°C° 0 mm 5 mps 736 mmHg 89%
    02:00 +1°C° 0 mm 5 mps 736 mmHg 88%
    03:00 +2°C° 0 mm 5 mps 737 mmHg 87%
    04:00 +1°C° 0 mm 5 mps 738 mmHg 87%
    05:00 +1°C° 0 mm 5 mps 738 mmHg 88%
    06:00 +1°C° 0 mm 4 mps 739 mmHg 89%
    07:00 +1°C° 0 mm 5 mps 740 mmHg 86%
    08:00 +2°C° 0 mm 5 mps 741 mmHg 83%
    09:00 +3°C° 0 mm 5 mps 742 mmHg 81%
    10:00 +5°C° 0.1 mm 5 mps 742 mmHg 77%
    11:00 +6°C° 0.1 mm 5 mps 742 mmHg 74%
    12:00 +6°C° 0.1 mm 5 mps 743 mmHg 70%
    13:00 +5°C° 0.2 mm 6 mps 743 mmHg 71%
    14:00 +5°C° 0.2 mm 6 mps 742 mmHg 72%
    15:00 +5°C° 0.2 mm 6 mps 742 mmHg 73%
    16:00 +5°C° 0 mm 5 mps 742 mmHg 76%
    17:00 +4°C° 0 mm 4 mps 742 mmHg 79%
    18:00 +2°C° 0 mm 3 mps 743 mmHg 82%
    19:00 +2°C° 0 mm 3 mps 743 mmHg 83%
    20:00 +2°C° 0 mm 2 mps 743 mmHg 84%
    21:00 +1°C° 0 mm 2 mps 744 mmHg 85%
    22:00 +1°C° 0 mm 2 mps 744 mmHg 85%
    23:00 +1°C° 0 mm 2 mps 744 mmHg 86%

    4 March, Wednesday

    Time Temperature Precipitation Wind Pressure Humidity
    00:00 +2°C° 0 mm 1 mps 744 mmHg 86%
    01:00 +1°C° 0 mm 1 mps 744 mmHg 86%
    02:00 +1°C° 0 mm 1 mps 744 mmHg 86%
    03:00 +1°C° 0 mm 1 mps 744 mmHg 87%
    04:00 +1°C° 0 mm 1 mps 744 mmHg 87%
    05:00 +1°C° 0 mm 1 mps 744 mmHg 87%
    06:00 +1°C° 0 mm 1 mps 744 mmHg 88%
    07:00 +2°C° 0 mm 1 mps 745 mmHg 85%
    08:00 +4°C° 0 mm 1 mps 745 mmHg 81%
    09:00 +5°C° 0 mm 1 mps 745 mmHg 78%
    10:00 +5°C° 0 mm 2 mps 745 mmHg 74%
    11:00 +6°C° 0 mm 2 mps 745 mmHg 69%
    12:00 +7°C° 0 mm 3 mps 745 mmHg 64%
    13:00 +7°C° 0.1 mm 3 mps 745 mmHg 71%
    14:00 +5°C° 0.1 mm 4 mps 744 mmHg 78%
    15:00 +5°C° 0.1 mm 4 mps 743 mmHg 85%
    16:00 +3°C° 0.9 mm 5 mps 743 mmHg 88%
    17:00 +3°C° 0.9 mm 5 mps 742 mmHg 91%
    18:00 +3°C° 0.9 mm 5 mps 742 mmHg 94%
    19:00 +5°C° 0.5 mm 5 mps 741 mmHg 95%
    20:00 +5°C° 0.5 mm 4 mps 741 mmHg 95%
    21:00 +5°C° 0.5 mm 4 mps 740 mmHg 96%
    22:00 +5°C° 0.1 mm 4 mps 740 mmHg 95%
    23:00 +5°C° 0.1 mm 3 mps 740 mmHg 95%

    5 March, Thursday

    Time Temperature Precipitation Wind Pressure Humidity
    00:00 +5°C° 0.1 mm 3 mps 739 mmHg 94%
    01:00 +4°C° 0.1 mm 3 mps 739 mmHg 95%
    02:00 +4°C° 0.1 mm 3 mps 739 mmHg 96%
    03:00 +4°C° 0.1 mm 3 mps 739 mmHg 96%
    04:00 +3°C° 0.1 mm 4 mps 739 mmHg 95%
    05:00 +2°C° 0.1 mm 6 mps 740 mmHg 93%
    06:00 +1°C° 0.1 mm 8 mps 740 mmHg 92%
    07:00 0°C° 0 mm 7 mps 741 mmHg 90%
    08:00 0°C° 0 mm 7 mps 741 mmHg 88%
    09:00 0°C° 0 mm 7 mps 742 mmHg 86%
    10:00 +2°C° 0 mm 6 mps 742 mmHg 82%
    11:00 +3°C° 0 mm 6 mps 743 mmHg 77%
    12:00 +4°C° 0 mm 6 mps 743 mmHg 72%
    13:00 +6°C° 0 mm 5 mps 743 mmHg 70%
    14:00 +6°C° 0 mm 5 mps 743 mmHg 68%
    15:00 +6°C° 0 mm 4 mps 743 mmHg 66%
    16:00 +5°C° 0 mm 4 mps 744 mmHg 70%
    17:00 +4°C° 0 mm 3 mps 744 mmHg 75%
    18:00 +4°C° 0 mm 2 mps 744 mmHg 80%
    19:00 +3°C° 0 mm 2 mps 744 mmHg 83%
    20:00 +2°C° 0 mm 2 mps 744 mmHg 85%
    21:00 +1°C° 0 mm 2 mps 745 mmHg 88%
    22:00 +1°C° 0 mm 2 mps 745 mmHg 88%
    23:00 +1°C° 0 mm 2 mps 744 mmHg 87%
    Show more